This is the latest recevied weather packets stored in our database for station/object YM2KV-13. If no packets are shown the sender has not sent any weather packets the latest 10 day(s).
| Time | Temp. | Humidity | Pressure | Rain* | Wind** | Luminosity | Snow |
|---|---|---|---|---|---|---|---|
| 1777453098 | 19.44° C | 50% | 1030.4 hPa | - | - | - | - |
| 1777452499 | 18.33° C | 52% | 1030.4 hPa | - | - | - | - |
| 1777451899 | 18.89° C | 51% | 1030.5 hPa | - | - | - | - |
| 1777451298 | 18.33° C | 52% | 1030.4 hPa | - | - | - | - |
| 1777450698 | 17.78° C | 54% | 1030.4 hPa | - | - | - | - |
| 1777450098 | 18.33° C | 53% | 1030.5 hPa | - | - | - | - |
| 1777449498 | 17.22° C | 53% | 1030.7 hPa | - | - | - | - |
| 1777448299 | 17.22° C | 54% | 1030.5 hPa | - | - | - | - |
| 1777447698 | 15.56° C | 55% | 1030.5 hPa | - | - | - | - |
| 1777447098 | 15° C | 56% | 1030.7 hPa | - | - | - | - |
| 1777446498 | 15.56° C | 58% | 1030.7 hPa | - | - | - | - |
| 1777445898 | 13.33° C | 60% | 1030.6 hPa | - | - | - | - |
| 1777445298 | 13.33° C | 61% | 1030.8 hPa | - | - | - | - |
| 1777444698 | 13.33° C | 62% | 1030.9 hPa | - | - | - | - |
| 1777444098 | 12.22° C | 63% | 1030.9 hPa | - | - | - | - |
| 1777443498 | 12.78° C | 65% | 1030.9 hPa | - | - | - | - |
| 1777442898 | 12.22° C | 68% | 1030.9 hPa | - | - | - | - |
| 1777442298 | 10.56° C | 70% | 1031 hPa | - | - | - | - |
| 1777441698 | 10° C | 72% | 1030.9 hPa | - | - | - | - |
| 1777441098 | 10° C | 74% | 1030.9 hPa | - | - | - | - |
| 1777440498 | 9.44° C | 75% | 1031 hPa | - | - | - | - |
| 1777439898 | 8.89° C | 76% | 1031 hPa | - | - | - | - |
| 1777439298 | 8.33° C | 77% | 1030.9 hPa | - | - | - | - |
| 1777438698 | 7.78° C | 78% | 1030.9 hPa | - | - | - | - |
| 1777438098 | 7.22° C | 80% | 1030.9 hPa | - | - | - | - |
* Rain since midnight (hover to see other rain measurements)
** Current wind speed in m/s (hover to see current wind gust speed)